Location: Maccacari
(45.1333°N, 11.1333°E)
Time: 15:15:01
(UTC+00:00)

S-56A Canister/Altair - Pass Details

Date: 28 January 2021
Orbit: 631 x 2501 km, 38.9° (Epoch: 01 March)

Event Time Altitude Azimuth Distance (km) Brightness Sun altitude
Rises 05:00:26 0° 267° (W) 2,924 - -17.6°
Reaches altitude 10° 05:03:03 10° 250° (WSW) 2,070 - -17.1°
Exits shadow 05:04:42 17° 231° (SW) 1,696 8.9 -16.8°
Maximum altitude 05:06:34 21° 200° (SSW) 1,582 9.0 -16.5°
Drops below altitude 10° 05:10:42 10° 152° (SSE) 2,475 10.7 -15.8°
Sets 05:14:11 0° 138° (SE) 3,690 11.9 -15.2°
